Location: Mainz-Finthen
(49.9906°N, 8.1713°E)
Time: 06:39:59
(UTC+00:00)

Envisat - Visible Passes

Search period start: 27 February 2024 00:00
Search period end: 08 March 2024 00:00
Orbit: 762 x 764 km, 98.3° (Epoch: 26 February)

Date Brightness Start Highest point End Pass type
(mag) Time Alt. Az. Time Alt. Az. Time Alt. Az.
27 Feb 4.9 02:16:02 10° NNE 02:18:52 26° ENE 02:18:52 26° ENE visible
27 Feb 3.6 03:54:58 10° N 03:59:02 38° NW 03:59:02 38° NW visible
28 Feb 5.6 01:39:42 10° NE 01:41:16 15° ENE 01:41:16 15° ENE visible
28 Feb 3.4 03:17:26 10° NNE 03:21:26 55° N 03:21:26 55° N visible
28 Feb 4.7 04:58:00 10° NNW 05:00:42 15° NW 05:01:37 14° WNW visible
29 Feb 4.1 02:40:12 10° NNE 02:43:51 41° NE 02:43:51 41° NE visible
29 Feb 4.0 04:19:42 10° N 04:23:52 26° WNW 04:24:01 26° WNW visible
01 Mar 5.1 02:03:22 10° NE 02:06:15 23° ENE 02:06:15 23° ENE visible
01 Mar 3.3 03:41:57 10° N 03:46:26 48° NW 03:46:26 48° NW visible
02 Mar 5.8 01:27:31 10° ENE 01:28:39 12° ENE 01:28:39 12° ENE visible
02 Mar 3.2 03:04:31 10° NNE 03:08:50 64° NNE 03:08:50 64° NNE visible
02 Mar 4.5 04:44:39 10° NNW 04:47:59 18° NW 04:49:00 17° WNW visible
03 Mar 4.3 02:27:23 10° NNE 02:31:14 38° ENE 02:31:14 38° ENE visible
03 Mar 3.7 04:06:37 10° N 04:11:05 32° WNW 04:11:25 32° WNW visible
04 Mar 5.2 01:50:46 10° NE 01:53:39 20° ENE 01:53:39 20° ENE visible
04 Mar 3.0 03:28:58 10° N 03:33:49 62° WNW 03:33:49 62° WNW visible
04 Mar 4.9 05:10:08 10° NNW 05:12:00 12° NW 05:13:52 10° WNW visible
05 Mar 3.3 02:51:38 10° NNE 02:56:14 63° ENE 02:56:14 63° ENE visible
05 Mar 4.2 04:31:26 10° N 04:35:14 22° WNW 04:36:24 20° WNW visible
06 Mar 4.5 02:14:38 10° NNE 02:18:38 32° E 02:18:38 32° E visible
06 Mar 3.4 03:53:33 10° N 03:58:16 40° WNW 03:58:49 38° W visible
07 Mar 5.4 01:38:19 10° NE 01:41:03 16° E 01:41:03 16° E visible
07 Mar 2.8 03:16:01 10° NNE 03:21:07 78° WNW 03:21:13 78° W visible
07 Mar 4.7 04:56:33 10° NNW 04:59:17 15° NW 05:01:23 12° W visible
